Flag for Pakistan Weather past 2 weeks in Peshawar, Pakistan

Now
86 °F

Warm.


Feels Like: 91 °F
Forecast: 80 / 101 °F
Wind: N/A

Location: Peshawar Airport

Current Time: Aug 22, 2014 at 11:13:34 AM

Latest Report: Aug 22, 2014 at 10:00 AM


Visibility: N/A

Pressure: 29.68 "Hg

Humidity: 59%

Dew point: 70 °F

Location of PeshawarLocation

Historic Weather in Peshawar — Graph

°F

Peshawar temperature yesterday

Maximum temperature yesterday: 100 °F (at 3:00 PM)
Minimum temperature yesterday: 72 °F (at 9:00 PM)
Average temperature yesterday: 90 °F

Past Weeks' High & Low Weather Summary

 TemperatureHumidityPressure
High102 °F (Aug 11, 3:00 PM)100% (Aug 8, 12:00 PM)29.80 "Hg (Aug 8, 12:00 PM)
Low37 °F (Aug 8, 12:00 PM)35% (Aug 18, 3:00 PM)29.36 "Hg (Aug 14, 4:00 PM)
Average87 °F65%29.58 "Hg
* Reported Aug 7 10:00 AM — Aug 22 10:00 AM, Peshawar, Weather by CustomWeather, © 2014

Note: Actual official high and low records may vary slightly from our data, if they occured in-between our weather recording intervals... More about our weather records

Advertising

Peshawar weather history for previous 24 hours

 ConditionsComfort  
Time TempWeatherWind HumidityBarometerVisibility
10:00 AM
Aug 22
86 °FWarm.N/A59%29.68 "HgN/A
9:00 AM82 °FWarm.N/A66%29.68 "HgN/A
8:00 AM79 °FSunny.No wind70%29.65 "Hg3 mi
7:00 AM77 °FSunny.No wind74%29.62 "Hg2 mi
6:00 AM75 °FMild.N/A89%29.62 "HgN/A
5:00 AM75 °FMild.N/A83%29.59 "HgN/A
4:00 AM77 °FWarm.N/A74%29.59 "HgN/A
3:00 AM79 °FWarm.N/A70%29.56 "HgN/A
2:00 AM79 °FWarm.N/A61%29.56 "HgN/A
1:00 AM79 °FWarm.N/A61%29.59 "HgN/A
12:00 AM79 °FWarm.N/A61%29.59 "HgN/A
11:00 PM
Aug 21
79 °FWarm.N/A61%29.59 "HgN/A
10:00 PM75 °FMild.N/A69%29.62 "HgN/A
9:00 PM72 °FMild.N/A83%29.59 "HgN/A
8:00 PM93 °FExtremely hot.N/A63%29.53 "HgN/A
7:00 PM95 °FExtremely hot.N/A60%29.53 "HgN/A
6:00 PM99 °FExtremely hot.N/A53%29.53 "HgN/A
5:00 PM99 °FExtremely hot.N/A53%29.50 "HgN/A
4:00 PM100 °FExtremely hot.N/A53%29.53 "HgN/A
3:00 PM100 °FExtremely hot.No wind53%29.53 "HgN/A
2:00 PM99 °FExtremely hot.N/A53%29.56 "HgN/A
1:00 PM97 °FExtremely hot.N/A56%29.56 "HgN/A
12:00 PM95 °FExtremely hot.N/A63%29.59 "HgN/A
11:00 AM91 °FHot.N/A63%29.62 "HgN/A
Weather by CustomWeather, © 2014

See weather overviewHow to use our weather pages